GFSFLT2_con_3kmhel_150.txt.gz
Helicity
81 85 106 148 167 163 169 170 173 178 168 149 136 123 108 95 89 79 77 64 63 56 57 65 67 60 46 42 37 40 15 23
76 74 72 74 103 167 190 198 197 190 184 162 144 125 119 118 108 120 105 78 73 73 65 68 62 69 57 39 28 36 27 20
69 67 67 70 77 97 111 147 165 148 156 192 155 168 162 188 220 184 164 118 100 86 80 80 64 59 58 61 65 49 35 31
65 67 69 68 75 92 115 137 168 183 178 193 189 215 240 209 210 204 202 163 146 133 117 88 58 62 73 70 68 55 49 42
79 76 70 69 88 95 110 133 142 166 204 201 218 218 227 222 213 210 195 207 162 127 112 119 129 106 87 72 70 59 57 57
90 91 90 81 84 117 135 162 173 168 182 192 177 202 227 237 235 234 220 225 205 206 188 160 136 141 141 139 131 117 112 100
111 100 91 99 116 131 158 168 183 180 175 196 184 182 198 202 209 210 204 194 197 176 166 155 155 148 138 138 132 121 110 96
126 120 123 121 140 147 156 172 164 169 170 168 170 166 166 170 176 183 183 175 162 168 157 149 130 113 93 95 90 90 85 90
158 150 132 132 142 140 146 151 145 150 147 165 163 154 148 148 152 157 152 136 126 115 111 93 87 69 63 58 52 46 57 69
173 150 126 149 155 141 155 151 134 136 124 128 144 145 137 126 127 135 133 123 119 111 110 104 90 83 77 75 76 74 83 77
173 147 136 176 154 148 148 141 121 128 123 120 129 134 133 125 124 120 105 93 94 94 85 85 75 72 61 53 60 72 81 98
183 144 143 173 153 144 129 132 116 116 116 110 109 113 114 103 104 107 95 93 92 89 78 72 64 64 55 56 65 82 117 143
197 169 145 159 136 119 123 129 121 118 117 110 105 100 102 94 88 87 78 84 78 75 62 70 70 73 58 72 63 90 125 138
210 169 158 144 144 132 141 147 143 128 115 118 110 105 100 94 85 83 86 73 84 86 89 69 63 73 64 21 64 43 114 119
236 194 168 157 181 175 183 184 145 121 105 106 111 107 102 100 100 95 91 86 82 85 84 82 51 36 50 60 60 129 140 113
270 232 191 171 160 174 164 170 170 155 129 119 116 113 113 111 112 109 105 88 88 74 65 50 37 50 9 46 60 79 96 135
318 258 205 183 173 180 199 221 214 167 145 130 129 128 129 126 120 107 93 75 72 60 47 44 40 40 47 45 52 44 104 80
320 275 229 210 204 207 216 231 208 189 158 140 132 125 123 121 109 108 97 80 71 68 65 78 72 73 75 100 114 117 152 142
342 282 271 258 244 247 240 246 222 206 173 150 131 125 120 111 96 91 81 77 77 74 76 84 92 104 119 112 134 149 147 147
334 305 326 322 297 273 267 268 250 224 200 173 151 132 127 111 95 94 98 85 83 83 89 93 109 122 155 152 134 141 135 132

GFSFLT2_con_3kmhel_156.txt.gz
Helicity
119 117 133 144 132 108 99 108 102 102 95 92 94 88 84 80 83 75 69 68 71 61 65 45 51 47 25 14 1 -5 3 9
116 116 98 102 115 121 114 98 93 100 99 91 82 90 81 76 82 79 76 71 70 68 67 55 45 43 34 30 16 2 20 9
107 111 120 95 78 85 84 74 64 75 82 86 88 121 101 131 175 149 130 104 86 72 73 65 49 40 40 43 40 35 33 60
106 112 97 48 62 49 62 70 74 113 138 132 191 204 223 215 157 141 131 110 94 84 71 58 61 53 81 59 63 45 31 19
120 119 93 40 117 40 28 36 80 126 158 180 165 180 207 204 186 169 133 108 111 103 81 67 74 77 89 78 65 58 52 56
149 130 121 138 150 93 161 172 161 102 157 145 145 159 190 195 198 189 193 178 187 162 177 164 150 152 140 107 100 97 130 151
152 186 190 183 168 215 212 163 203 200 155 151 181 151 144 146 139 139 142 163 166 165 179 157 136 142 139 137 135 156 149 147
207 184 200 189 247 226 215 225 171 203 211 183 207 204 155 113 113 125 100 146 183 168 168 156 160 155 124 128 143 121 122 123
216 239 211 247 239 200 182 136 161 198 183 188 205 204 167 177 216 224 225 157 137 147 123 115 111 117 117 137 106 87 101 123
221 225 229 235 214 215 208 160 200 186 169 178 183 185 169 173 195 211 156 144 165 184 157 145 157 141 122 103 111 103 91 59
261 261 248 260 246 246 234 185 181 179 152 152 172 176 194 208 195 144 144 135 142 152 150 118 125 109 94 79 71 66 70 141
289 291 279 310 278 296 229 217 218 186 183 151 161 172 170 154 148 130 126 131 114 118 112 99 88 86 81 63 70 98 126 124
305 283 338 354 338 282 265 233 219 225 212 173 175 174 179 166 118 117 131 126 114 118 106 97 96 99 102 82 65 105 102 163
286 267 294 284 279 254 230 241 213 217 202 195 188 182 179 176 150 148 130 111 120 129 137 119 86 110 104 82 110 108 86 110
334 269 235 216 228 259 332 369 358 281 230 207 209 209 211 196 190 159 165 135 130 136 150 158 113 87 132 126 141 194 113 123
417 285 262 224 248 294 343 334 273 203 193 263 241 239 239 220 196 188 190 175 149 137 159 161 178 137 114 144 156 163 198 193
386 307 280 239 273 370 327 247 205 232 301 281 252 255 234 224 207 191 184 177 187 191 204 207 207 169 174 167 182 171 170 171
306 253 291 292 266 336 265 181 258 356 340 264 270 272 274 252 231 210 193 201 187 176 186 228 217 238 176 211 198 173 128 128
204 200 241 319 335 265 217 157 305 270 246 249 259 284 279 271 236 217 217 219 213 182 185 200 215 200 200 149 156 168 155 132
222 261 239 259 304 306 238 214 323 274 228 240 288 290 285 297 297 247 198 196 204 195 197 174 166 152 184 155 120 131 136 130

GFSFLT2_con_3kmhel_162.txt.gz
Helicity
210 168 150 135 120 106 106 96 96 84 83 75 69 67 67 67 71 64 57 58 53 42 41 20 13 20 19 17 23 40 33 40
220 201 165 149 125 118 118 111 109 98 104 98 89 90 83 84 84 81 75 66 58 48 46 36 26 26 27 23 21 29 32 42
201 194 163 151 145 123 126 125 122 118 116 106 113 112 110 129 95 78 80 76 75 61 50 49 47 37 30 23 25 34 33 51
169 175 164 166 146 140 133 135 132 127 126 127 143 150 158 156 148 141 137 121 108 90 68 77 69 64 57 48 50 50 66 82
169 164 151 151 152 146 149 142 148 130 131 135 148 158 176 173 171 170 168 145 126 109 104 103 100 96 85 85 87 97 114 113
169 154 147 133 163 154 149 160 161 143 130 138 144 146 166 167 179 178 174 177 188 176 163 137 121 137 136 129 116 144 143 174
199 174 142 147 168 164 168 166 147 145 149 139 133 135 138 137 154 163 168 167 167 173 159 166 161 175 172 159 153 153 175 203
232 192 170 171 179 172 161 168 171 169 160 158 156 149 130 117 136 154 170 165 176 178 160 148 151 152 171 158 165 162 167 222
250 240 248 223 228 228 240 249 231 204 181 180 180 172 149 132 130 171 179 176 177 163 170 167 168 154 176 169 150 153 171 200
344 292 314 313 275 261 256 235 204 185 177 172 189 193 193 204 191 201 178 168 163 176 145 177 183 181 177 166 165 161 191 191
511 349 328 347 330 297 261 220 196 181 177 175 179 180 203 212 194 214 199 183 178 166 164 157 157 162 160 152 176 158 177 160
564 447 382 364 403 409 342 266 228 203 188 175 174 182 188 190 187 199 185 184 178 172 157 174 140 128 135 160 184 197 164 134
549 561 482 494 453 483 436 318 248 221 195 180 186 195 179 164 175 185 187 169 149 148 170 150 154 118 164 292 308 307 283 268
586 521 477 411 367 341 326 345 294 282 255 239 199 206 206 173 179 176 169 169 156 148 164 161 151 136 176 301 287 290 340 285
622 557 436 379 312 313 290 337 349 333 299 224 199 218 238 211 188 175 167 161 162 152 158 151 162 206 221 225 279 250 327 297
576 511 389 251 239 229 238 268 334 297 229 213 214 228 257 246 213 194 195 189 191 175 172 155 184 216 289 253 257 255 291 286
497 333 245 168 152 187 204 254 298 269 281 259 222 203 227 233 234 226 220 224 219 216 218 225 212 185 193 245 297 365 315 320
243 190 90 124 167 160 189 248 309 287 266 243 213 183 198 229 212 223 218 242 258 247 240 243 246 244 230 219 226 277 296 300
110 110 101 114 141 140 193 262 323 270 266 272 258 211 184 207 242 236 226 213 226 242 269 262 247 254 245 254 254 237 253 306
89 83 91 121 123 132 162 220 263 273 276 295 282 242 205 204 225 234 226 222 236 251 269 266 256 254 255 250 247 246 241 224

GFSFLT2_con_3kmhel_165.txt.gz
Helicity
226 186 158 134 125 112 103 99 99 88 80 81 83 79 75 67 63 69 73 73 69 53 44 34 26 23 31 36 46 58 42 41
210 204 180 151 134 120 116 114 109 108 102 101 106 93 90 85 81 82 83 82 77 63 55 49 49 41 37 34 41 71 57 41
194 216 196 170 145 130 129 126 124 124 125 122 117 105 101 98 94 95 98 97 87 77 62 58 57 63 49 40 49 54 60 72
193 204 204 186 159 154 142 141 136 135 134 127 121 109 114 118 131 129 116 105 89 86 86 72 76 74 80 65 73 82 78 90
192 170 178 194 176 176 161 151 148 139 134 130 125 129 139 131 139 154 136 136 156 134 106 97 102 86 88 95 89 110 115 146
187 178 201 184 181 173 152 156 144 139 127 123 126 128 134 133 144 155 164 161 168 159 135 151 123 113 104 95 122 104 133 165
182 199 217 212 198 180 167 153 140 132 130 120 108 103 105 109 125 135 146 139 140 152 157 157 160 163 161 165 181 182 195 183
218 223 227 244 216 197 172 154 150 142 134 107 89 95 99 97 110 122 123 135 151 136 128 152 146 158 163 146 125 138 169 206
270 234 277 302 247 211 188 167 157 152 134 118 109 105 102 107 113 123 121 133 154 155 152 144 173 167 195 197 157 146 193 200
253 280 316 357 261 231 218 208 198 182 155 133 124 125 121 115 120 119 119 133 137 148 145 164 177 176 206 220 182 217 177 182
317 332 409 322 258 275 276 276 261 225 183 158 154 154 140 145 155 149 141 129 130 124 128 122 160 200 217 232 214 192 185 205
361 401 383 381 360 351 344 319 283 239 193 168 170 173 176 179 177 168 157 146 142 137 131 132 124 185 255 292 305 300 310 294
414 480 449 408 366 351 326 276 221 219 214 203 202 197 192 195 187 173 164 147 129 151 154 150 150 163 261 359 385 376 378 329
440 515 482 401 358 269 199 197 160 159 182 207 206 196 187 178 168 169 169 166 149 142 149 163 163 178 230 334 302 273 334 315
519 547 508 322 190 168 158 203 181 209 219 186 166 163 159 157 163 154 155 160 129 125 131 142 167 191 216 252 287 235 334 289
579 569 427 259 176 155 149 166 161 149 139 124 132 120 121 123 138 152 154 141 131 126 121 150 171 187 259 285 272 248 294 287
470 377 239 135 90 117 155 172 168 140 155 138 114 107 105 117 119 134 152 155 146 135 124 114 147 172 242 304 306 306 322 307
185 133 67 106 90 90 118 145 152 161 159 152 143 132 123 144 159 159 154 155 136 133 142 149 138 166 192 229 242 276 300 290
62 77 95 78 65 56 71 107 150 163 170 173 156 148 154 145 165 165 149 144 154 155 153 162 174 183 189 198 212 225 243 273
45 47 22 54 64 67 97 129 155 169 169 187 164 159 138 144 162 158 147 138 149 174 189 187 185 188 202 216 230 246 238 259

GFSFLT2_con_3kmhel_168.txt.gz
Helicity
166 144 137 136 110 106 101 98 94 90 89 86 90 90 83 82 84 82 79 79 80 76 67 60 52 55 53 57 59 57 49 48
164 162 160 150 119 119 114 110 103 95 93 90 93 101 95 91 91 87 88 84 89 92 86 69 63 60 65 74 66 61 55 55
176 166 171 145 145 132 132 133 114 114 107 102 108 106 101 96 86 86 86 85 92 92 85 80 64 62 64 76 74 70 60 49
129 171 176 155 161 169 162 147 143 132 123 118 107 106 102 96 90 81 78 70 72 86 73 75 94 76 74 76 86 85 88 80
116 163 160 167 159 175 180 168 158 142 131 118 112 108 108 110 108 105 104 101 98 98 121 117 114 97 80 88 114 116 104 124
148 159 161 155 170 188 182 180 159 144 128 124 116 107 106 106 105 105 121 123 98 114 110 120 133 113 97 104 114 122 149 156
176 180 175 184 195 196 212 194 171 152 142 121 103 100 91 96 93 96 104 101 115 104 107 114 129 125 118 156 190 190 204 221
183 182 183 216 219 225 222 213 190 176 142 109 100 91 83 84 85 82 95 98 109 114 104 113 127 137 134 142 147 163 181 194
210 198 215 232 216 238 252 214 207 184 140 121 102 91 83 82 76 83 88 96 108 122 130 133 148 134 150 122 175 159 206 198
262 240 230 241 238 244 233 222 217 191 151 135 108 81 76 84 87 91 96 101 105 122 131 155 176 159 174 164 194 235 204 294
278 291 253 240 249 246 234 235 206 175 145 121 102 87 80 85 90 106 114 116 122 112 131 137 176 224 231 233 244 273 246 236
331 317 285 296 286 263 256 274 230 186 145 112 98 87 96 103 114 120 122 119 118 118 125 159 165 237 303 358 341 339 345 308
386 410 334 305 269 172 150 161 130 90 89 100 95 90 97 110 113 118 123 106 99 106 133 164 211 235 329 368 374 386 403 375
392 391 373 317 264 186 69 79 74 62 64 66 62 62 57 66 81 93 109 113 112 106 123 161 191 167 236 293 276 269 330 332
346 384 380 336 305 330 268 117 56 51 53 51 44 43 54 71 83 85 89 99 98 107 114 132 158 156 170 218 243 223 331 278
306 328 345 236 167 179 121 92 127 63 37 37 32 70 82 95 109 119 119 118 100 102 111 126 155 167 181 206 217 200 251 263
153 165 142 101 74 98 62 81 105 102 91 71 64 59 66 82 91 111 132 148 135 92 91 97 139 165 202 218 238 243 242 239
96 96 73 103 119 69 82 78 64 72 84 81 76 92 93 95 90 92 109 134 154 147 120 107 122 163 187 202 236 255 232 235
37 62 74 31 -7 34 58 42 67 69 90 120 127 133 105 83 99 92 106 112 139 151 148 136 119 140 177 201 212 245 237 274
-28 -14 -29 -39 -3 3 88 111 136 143 137 135 121 126 147 138 119 98 106 126 132 137 167 156 144 158 168 189 215 223 243 267